Theta_e
307 306 305 303 303 302 302 302 302 301 300 299 299 298 297 297 295 294 294 294 293 293 293 293 293 293 293 294 294 294 294 293 293 296 295 295 295 295 295 295 294 295 295
306 304 303 303 302 302 302 302 300 299 298 298 296 295 294 293 293 292 292 292 291 291 291 291 291 291 291 291 291 291 292 292 291 293 294 295 295 295 294 294 293 293 293
304 303 303 302 302 302 301 299 298 297 295 293 292 292 291 291 290 290 290 290 289 289 289 289 289 289 289 288 288 289 289 289 289 290 291 292 293 293 293 293 293 292 292
303 302 302 301 300 299 298 296 294 292 292 291 290 290 290 290 289 289 289 289 289 289 288 288 288 287 287 287 286 286 286 286 286 286 288 289 289 290 290 290 290 290 290
301 301 300 298 298 296 294 292 291 290 290 290 290 289 289 289 289 288 288 288 287 287 287 287 286 286 286 285 284 284 283 283 284 284 285 285 286 286 287 288 288 288 288
300 298 298 297 294 292 291 290 290 290 289 289 289 289 288 288 288 287 286 286 286 285 285 285 284 284 284 284 284 283 282 282 282 283 283 284 284 285 285 285 286 286 286
298 297 296 294 292 291 290 290 289 289 289 288 288 288 287 287 286 286 286 285 285 284 284 283 283 282 282 282 282 282 282 282 282 282 282 282 283 284 284 285 285 285 285
297 295 294 292 291 290 290 289 289 288 288 287 287 286 286 285 285 285 284 284 283 282 282 281 281 281 280 280 280 281 281 281 282 282 283 282 282 283 284 284 284 284 284
295 293 291 290 289 289 289 288 288 288 287 286 286 285 285 285 284 284 283 282 281 281 281 280 279 279 279 279 279 279 280 280 280 281 282 282 282 283 284 284 284 283 283
293 291 290 289 289 289 288 288 287 286 286 285 285 284 285 284 283 282 281 280 280 280 280 279 279 278 278 278 278 278 278 279 279 280 281 280 280 281 282 283 283 283 282
292 290 289 289 289 288 287 286 286 285 285 284 284 284 284 283 281 281 280 279 279 279 278 278 277 277 276 276 276 276 277 277 278 278 278 278 279 280 281 282 281 281 281
290 289 289 288 287 286 285 285 284 284 284 284 284 284 283 281 280 280 279 279 278 277 277 276 276 275 275 275 275 275 275 276 277 277 278 278 279 279 280 279 279 280 279
290 289 288 287 286 285 285 284 284 283 283 283 283 282 281 280 280 279 278 278 277 276 276 275 276 274 274 274 274 274 275 275 275 276 276 276 276 277 278 277 278 278 278
289 288 287 286 285 285 284 283 283 283 283 282 281 281 280 279 278 278 277 276 275 275 274 274 273 273 273 273 273 274 274 274 273 273 274 275 275 275 275 276 276 277 277
288 287 286 286 285 284 283 283 283 282 282 281 280 279 278 278 277 275 274 274 274 273 272 272 272 272 272 272 272 272 273 273 273 273 273 273 274 274 274 274 275 275 275
287 286 286 285 284 283 283 282 282 282 281 279 278 277 277 276 275 274 273 273 272 273 272 272 272 271 271 271 270 271 271 271 271 272 272 272 272 272 273 273 273 273 273
287 286 285 284 283 283 282 282 282 281 280 279 277 276 276 275 275 274 272 272 272 272 272 271 271 270 270 270 269 269 269 270 270 271 271 271 271 271 271 271 271 271 271
286 285 284 283 282 282 282 281 281 280 279 278 277 276 275 275 274 273 273 273 273 272 271 271 270 270 269 268 268 268 268 269 269 270 270 270 271 271 270 270 270 270 269
286 284 283 282 281 281 281 280 279 279 277 276 276 276 275 274 273 272 272 271 271 271 271 270 270 269 268 267 267 267 267 268 268 269 269 270 270 270 270 269 269 268 268
284 283 282 281 281 280 280 279 278 277 275 275 275 274 274 273 272 272 271 270 270 270 270 269 269 268 267 266 267 267 267 267 268 268 269 269 269 269 269 268 268 267 267
283 282 281 280 280 280 279 278 277 275 275 275 274 273 272 272 271 270 270 270 269 269 269 269 268 267 266 266 266 266 266 266 267 267 268 268 268 268 268 267 267 267 267
281 280 280 280 280 279 278 277 275 275 274 274 273 273 272 271 270 270 270 269 269 269 268 267 267 267 266 266 266 265 266 266 266 266 267 267 267 267 267 266 266 266 266
280 280 280 279 279 278 277 275 275 274 274 273 272 272 271 270 270 270 270 269 269 269 268 267 267 267 266 266 265 265 265 265 265 265 266 266 267 267 266 266 266 266 266
279 279 279 279 278 277 275 275 274 274 273 272 272 271 270 270 269 269 269 269 269 268 268 267 267 266 266 266 266 266 265 265 265 265 265 266 266 266 266 266 265 266 265
279 279 279 278 276 275 275 274 274 273 272 272 271 270 270 269 269 269 269 269 268 268 268 267 267 267 266 266 266 266 265 265 265 265 265 265 266 266 266 265 265 265 265
278 278 278 276 275 274 274 274 273 272 272 271 270 270 269 269 269 269 268 268 268 267 267 267 267 267 266 266 266 266 266 266 265 265 264 265 265 265 265 265 265 265 265
Wind_Speed
3 4 6 6 6 8 11 14 18 22 25 27 28 28 28 29 29 27 27 26 27 27 27 29 30 31 32 31 31 29 28 26 37 58 49 50 50 47 44 39 36 33 32
3 4 5 6 9 12 16 20 23 25 25 25 25 25 24 24 24 25 25 26 27 28 29 29 30 31 32 32 33 32 31 29 32 46 50 50 49 47 45 43 38 34 31
3 4 6 8 12 16 20 22 23 23 23 22 22 22 22 23 23 24 25 26 26 27 29 31 32 33 34 34 34 34 33 34 33 38 49 47 47 46 45 41 39 34 29
3 5 9 13 17 19 19 20 20 19 19 19 20 22 23 23 24 25 27 28 30 30 31 31 32 33 35 36 36 34 34 35 35 36 42 46 44 43 41 39 40 34 31
4 8 13 15 17 17 16 16 17 17 19 20 19 21 23 25 27 29 30 31 31 31 32 32 32 33 34 34 33 33 32 31 33 34 36 36 37 38 40 39 38 37 35
9 12 14 15 15 15 15 16 16 17 18 20 22 23 24 25 26 29 31 32 32 33 34 34 33 32 32 33 32 31 29 30 34 33 36 37 41 37 41 41 38 37 37
12 14 14 14 14 14 15 16 18 19 20 21 22 23 25 27 30 31 32 32 34 34 34 35 36 37 37 36 36 35 35 35 31 32 35 38 38 35 35 37 35 33 34
13 13 13 14 14 15 16 18 18 20 21 22 23 25 27 28 29 31 33 32 32 33 34 36 36 37 37 34 38 42 42 41 40 38 37 43 38 37 34 32 30 31 32
12 13 14 14 15 16 18 19 20 21 21 23 25 26 27 28 29 29 31 32 32 33 34 34 35 37 37 35 38 43 47 47 43 35 41 37 36 32 34 36 32 30 32
13 14 15 16 17 18 20 20 21 22 22 22 23 25 26 26 27 27 29 31 32 34 35 35 37 37 37 38 38 40 45 47 45 43 48 50 42 32 33 35 34 29 25
14 15 17 18 20 20 20 21 21 21 22 23 22 23 24 25 24 25 27 29 31 35 37 41 42 37 37 40 38 40 38 40 44 46 50 49 38 29 29 32 30 24 22
16 17 18 19 19 20 21 21 21 21 22 22 23 22 22 22 23 25 28 29 30 33 38 42 42 42 46 46 44 42 40 39 39 40 39 36 32 27 27 28 25 21 19
17 18 19 19 20 21 22 22 22 22 22 23 24 23 21 21 23 27 30 33 34 31 37 35 45 47 47 47 43 40 38 37 35 33 29 28 28 26 23 19 18 16 15
18 19 19 20 21 22 22 21 21 22 22 23 24 24 23 24 27 29 32 34 34 37 41 43 43 43 42 40 41 39 36 33 30 29 27 25 22 20 18 15 14 14 16
19 20 21 22 22 22 21 21 21 22 23 23 22 22 25 26 27 28 28 30 29 33 37 42 44 43 44 42 41 37 34 32 31 28 25 22 20 18 15 14 15 16 18
21 22 23 23 23 22 21 19 20 20 21 20 20 22 23 25 29 30 28 25 29 37 39 40 41 41 40 40 38 37 34 32 30 28 24 21 19 18 17 17 18 18 19
24 24 24 24 23 22 20 20 19 17 18 18 20 22 25 29 31 33 30 35 35 36 37 38 38 38 38 36 34 33 33 31 28 26 24 21 20 19 19 19 19 18 17
26 25 25 24 22 21 20 19 19 18 17 16 18 23 26 29 32 33 34 35 35 33 34 35 36 36 35 33 32 31 30 29 27 25 24 22 20 20 19 19 18 17 15
26 25 24 22 20 19 18 18 18 18 17 18 20 22 27 31 31 30 30 31 34 34 34 35 34 34 32 31 30 29 28 27 26 25 24 23 22 21 19 17 16 14 13
25 24 22 20 18 17 17 17 18 17 17 20 23 28 30 33 33 32 30 30 31 32 32 34 34 33 31 30 29 29 28 26 25 24 24 23 22 21 19 16 14 13 11
23 22 19 17 16 16 16 17 16 17 19 22 24 27 29 32 32 30 30 30 31 32 33 32 32 32 31 30 29 28 27 26 25 24 24 23 22 20 16 14 12 11 9
21 18 16 15 15 15 16 15 15 17 20 24 26 27 28 28 28 29 30 30 30 30 30 31 30 30 29 29 28 28 27 25 23 23 22 21 19 17 14 11 9 8 6
18 16 14 14 15 14 13 14 16 18 21 24 26 28 27 27 27 29 30 31 31 29 28 28 29 29 27 27 25 25 26 24 22 20 20 19 17 14 11 9 7 5 4
15 13 13 14 14 13 13 15 18 20 23 25 26 27 27 27 28 29 30 31 30 29 27 27 28 28 28 26 25 23 22 21 19 18 17 17 15 12 9 7 5 3 3
12 12 13 13 13 13 14 17 19 22 24 26 27 28 28 29 29 30 30 30 30 29 28 27 26 27 27 26 24 22 21 19 17 15 15 14 12 10 8 6 4 3 3
11 12 12 13 12 13 15 18 20 23 25 27 27 28 30 32 32 32 31 31 30 29 28 28 26 26 26 25 23 22 20 17 15 13 13 12 10 8 7 5 4 4 4
Wind_Direction
329 337 345 345 344 343 336 328 327 325 325 324 323 324 324 325 324 324 325 325 324 323 321 318 318 315 314 313 308 303 298 290 283 294 295 298 299 302 301 302 302 297 293
319 331 331 335 332 327 322 321 321 322 323 324 325 326 327 326 326 325 326 328 327 326 324 321 320 318 316 314 312 309 305 298 291 292 298 299 299 300 300 301 301 299 295
297 313 318 313 312 313 315 319 323 325 327 330 330 331 331 332 332 331 331 332 333 334 333 332 330 327 324 321 317 314 311 306 301 297 298 300 300 301 301 300 300 299 293
273 302 309 312 315 319 323 326 328 330 333 334 337 336 334 334 333 334 338 340 340 338 335 333 331 328 326 325 323 322 321 317 315 312 306 303 303 302 303 306 304 301 296
284 304 310 317 321 324 328 330 333 335 336 336 335 334 336 338 340 341 340 339 336 335 336 334 332 330 328 328 327 326 324 321 318 313 306 307 308 308 307 309 304 302 299
303 312 320 323 327 329 330 331 332 333 335 339 341 342 341 341 338 336 336 337 336 337 339 338 337 336 332 328 325 323 320 316 315 312 308 305 303 303 303 303 301 302 303
313 319 323 324 321 320 324 329 335 339 341 340 340 340 339 340 339 337 336 338 338 340 340 339 340 340 338 333 330 325 321 320 316 311 309 310 308 301 301 298 296 294 292
310 312 311 310 314 321 328 333 335 336 337 338 339 341 341 339 338 339 337 336 339 342 342 342 342 340 339 336 331 324 320 316 314 313 309 311 309 307 298 294 294 293 291
300 300 306 312 319 327 329 327 329 330 333 337 338 338 338 338 337 336 335 338 340 341 343 344 343 341 339 338 328 325 323 321 320 311 307 301 303 297 284 286 288 291 293
297 304 311 319 321 321 321 322 325 327 329 333 336 335 334 334 335 336 336 339 339 339 339 339 338 336 335 332 330 326 322 321 318 312 299 300 302 296 295 288 280 283 286
303 311 316 316 314 314 315 317 321 325 327 329 331 331 329 328 330 333 336 337 337 333 332 333 333 334 329 330 329 327 322 316 306 301 301 303 306 300 295 290 277 275 280
312 311 307 304 307 311 315 318 321 322 323 324 324 325 326 326 329 332 332 334 335 331 328 329 329 328 329 329 329 328 325 320 315 312 310 311 312 306 302 290 277 276 280
299 296 299 306 312 315 316 317 317 319 320 320 322 324 326 328 331 330 329 332 332 329 324 323 325 326 328 328 331 331 329 328 327 325 325 324 320 316 311 292 279 283 291
295 301 305 308 311 313 311 312 314 316 317 320 323 326 331 334 332 330 332 332 334 325 320 324 326 327 328 331 333 336 338 338 336 333 330 330 330 329 318 302 295 300 305
296 298 300 303 305 307 309 311 313 316 318 322 324 327 330 331 332 331 330 331 325 319 321 327 329 333 335 336 336 337 337 338 338 336 334 337 337 334 326 316 312 310 308
292 294 296 300 303 305 305 307 312 314 317 320 323 326 328 330 330 331 329 325 324 328 329 330 334 336 337 337 336 335 337 337 338 336 336 338 337 334 327 321 317 313 311
288 290 294 297 299 301 303 304 304 308 314 318 322 324 327 329 330 328 326 324 330 329 330 333 335 336 335 332 332 334 334 336 335 335 334 333 332 329 326 323 319 315 313
286 289 293 294 296 298 301 303 306 311 313 313 320 325 325 325 326 326 324 325 327 332 333 334 334 333 330 329 330 331 331 334 334 334 333 332 330 327 324 322 319 315 312
287 288 288 289 293 296 300 305 309 312 312 316 320 320 321 323 327 329 329 329 332 334 333 332 331 330 330 328 329 329 330 330 332 332 331 331 330 325 322 321 318 315 309
283 284 284 287 289 293 299 302 304 306 311 318 323 323 326 328 334 333 334 334 333 332 332 330 329 329 330 329 328 327 328 329 328 328 329 330 329 325 321 319 317 313 305
279 279 281 283 286 292 293 297 300 307 315 320 323 327 331 329 328 331 333 334 333 333 330 328 328 327 328 328 328 327 325 327 328 325 324 325 325 323 321 319 316 310 302
277 276 277 277 281 284 289 294 302 310 314 318 323 327 325 325 326 329 331 332 332 330 326 325 326 327 327 327 326 325 325 324 326 326 327 326 324 322 323 323 319 313 302
271 271 271 273 277 284 287 293 301 307 313 317 319 322 324 326 328 329 330 330 328 327 327 326 324 325 326 325 325 324 323 323 322 323 324 326 324 322 323 324 319 310 292
261 261 265 272 281 283 288 297 304 308 313 317 320 321 323 326 328 328 326 324 324 326 327 327 326 324 325 325 324 324 323 321 319 319 317 318 320 319 320 318 311 294 264
254 258 267 274 273 277 288 297 304 310 315 317 318 320 324 325 325 323 320 319 322 325 327 327 327 325 323 323 323 324 323 321 318 318 315 311 311 312 312 307 298 273 239
252 260 265 263 269 284 293 299 307 312 314 314 317 322 323 323 320 317 316 317 319 321 324 326 325 323 322 322 322 321 321 320 315 317 318 310 301 301 297 288 274 253 231